Location: Castellare
(42.4669°N, 9.4728°E)
Time: 18:05:18
(UTC+00:00)

Cosmos 1805 Rocket - Pass Details

Date: 17 February 2020
Orbit: 606 x 630 km, 82.5° (Epoch: 28 March)

Event Time Altitude Azimuth Distance (km) Brightness Sun altitude
Rises 04:48:48 0° 356° (N) 2,875 6.9 -16.9°
Reaches altitude 10° 04:51:04 10° 0° (N) 1,965 6.1 -16.5°
Maximum altitude 04:55:20 57° 79° (E) 719 4.2 -15.7°
Drops below altitude 10° 04:59:35 10° 159° (SSE) 1,951 6.4 -14.9°
Sets 05:01:50 0° 163° (SSE) 2,851 7.2 -14.5°
